TimeEDT,TemperatureF,Dew PointF,Humidity,Sea Level PressureIn,VisibilityMPH,Wind Direction,Wind SpeedMPH,Gust SpeedMPH,PrecipitationIn,Events,Conditions,WindDirDegrees,DateUTC
12:15 AM,27.5,24.4,88,29.71,10.0,SSW,4.6,-,N/A,,Scattered Clouds,210,2013-03-14 04:15:00
12:35 AM,28.0,25.0,88,29.71,10.0,Calm,Calm,-,N/A,,Scattered Clouds,0,2013-03-14 04:35:00
12:55 AM,28.2,24.8,87,29.70,10.0,Calm,Calm,-,N/A,,Mostly Cloudy,0,2013-03-14 04:55:00
1:15 AM,28.2,24.8,87,29.69,10.0,SW,3.5,-,N/A,,Scattered Clouds,220,2013-03-14 05:15:00
1:35 AM,30.2,22.6,73,29.69,10.0,WSW,6.9,-,N/A,Snow,Light Snow,240,2013-03-14 05:35:00
1:55 AM,30.2,22.1,72,29.69,10.0,WSW,5.8,17.3,N/A,,Clear,250,2013-03-14 05:55:00
2:15 AM,29.7,22.1,73,29.69,10.0,SSW,4.6,-,N/A,,Scattered Clouds,210,2013-03-14 06:15:00
2:35 AM,29.3,22.6,76,29.68,10.0,SSW,5.8,-,N/A,,Overcast,210,2013-03-14 06:35:00
2:55 AM,29.8,23.0,76,29.69,10.0,SSW,9.2,-,N/A,,Overcast,210,2013-03-14 06:55:00
3:15 AM,29.3,23.4,78,29.68,7.0,SSW,9.2,-,N/A,Snow,Light Snow,210,2013-03-14 07:15:00
3:35 AM,28.4,23.9,83,29.68,1.2,SW,9.2,-,N/A,Snow,Snow,220,2013-03-14 07:35:00
3:55 AM,27.9,23.5,84,29.67,3.0,SW,6.9,-,N/A,Snow,Light Snow,220,2013-03-14 07:55:00
4:15 AM,27.9,22.5,80,29.67,10.0,WSW,9.2,-,N/A,,Overcast,240,2013-03-14 08:15:00
4:35 AM,27.5,20.7,75,29.67,10.0,SW,5.8,-,N/A,,Overcast,230,2013-03-14 08:35:00
5:15 AM,27.9,20.5,74,29.67,10.0,SW,8.1,-,N/A,,Overcast,230,2013-03-14 09:15:00
5:35 AM,27.9,20.1,73,29.67,10.0,SSW,6.9,-,N/A,,Overcast,210,2013-03-14 09:35:00
5:55 AM,27.9,19.4,71,29.67,10.0,SSW,6.9,-,N/A,,Overcast,210,2013-03-14 09:55:00
6:15 AM,27.9,18.9,69,29.67,10.0,SW,8.1,-,N/A,,Overcast,220,2013-03-14 10:15:00
6:35 AM,27.5,18.5,69,29.67,10.0,SSW,9.2,-,N/A,,Overcast,210,2013-03-14 10:35:00
6:55 AM,27.3,18.7,70,29.67,10.0,SW,8.1,-,N/A,,Overcast,220,2013-03-14 10:55:00
7:15 AM,27.3,18.5,69,29.67,10.0,SW,6.9,-,N/A,,Overcast,220,2013-03-14 11:15:00
7:35 AM,27.1,18.5,70,29.68,10.0,SW,8.1,-,N/A,,Overcast,220,2013-03-14 11:35:00
7:55 AM,27.3,19.8,73,29.68,5.0,SW,9.2,16.1,N/A,Snow,Light Snow,230,2013-03-14 11:55:00
8:15 AM,26.6,19.0,73,29.68,10.0,WSW,11.5,17.3,N/A,,Overcast,240,2013-03-14 12:15:00
8:35 AM,25.7,19.6,78,29.69,1.2,West,10.4,16.1,N/A,Snow,Light Snow,260,2013-03-14 12:35:00
8:55 AM,25.3,18.7,76,29.70,2.0,West,6.9,-,N/A,Snow,Light Snow,270,2013-03-14 12:55:00
9:15 AM,25.3,16.9,70,29.71,10.0,WSW,10.4,17.3,N/A,Snow,Light Snow,240,2013-03-14 13:15:00
10:15 AM,24.8,14.4,65,29.72,10.0,West,9.2,-,N/A,,Overcast,260,2013-03-14 14:15:00
10:35 AM,24.8,14.2,64,29.72,10.0,WSW,9.2,18.4,N/A,,Overcast,240,2013-03-14 14:35:00
10:55 AM,23.9,13.3,64,29.72,10.0,WSW,13.8,18.4,N/A,,Overcast,240,2013-03-14 14:55:00
11:15 AM,23.9,12.9,63,29.73,10.0,SW,9.2,-,N/A,,Overcast,230,2013-03-14 15:15:00
11:35 AM,23.9,13.1,63,29.73,10.0,SW,11.5,-,N/A,,Overcast,220,2013-03-14 15:35:00
11:55 AM,23.2,11.7,61,29.73,10.0,WSW,6.9,-,N/A,,Overcast,250,2013-03-14 15:55:00
12:15 PM,23.0,11.8,62,29.73,10.0,WSW,9.2,-,N/A,,Overcast,250,2013-03-14 16:15:00
12:35 PM,22.6,12.4,65,29.73,10.0,NW,10.4,-,N/A,,Overcast,310,2013-03-14 16:35:00
12:55 PM,22.3,11.8,64,29.73,10.0,NNW,9.2,-,N/A,,Overcast,330,2013-03-14 16:55:00
1:15 PM,22.8,12.7,65,29.73,10.0,NW,10.4,-,N/A,,Overcast,310,2013-03-14 17:15:00
1:35 PM,22.1,11.3,63,29.73,10.0,NW,10.4,18.4,N/A,,Overcast,310,2013-03-14 17:35:00
1:55 PM,21.2,10.4,63,29.73,10.0,NW,11.5,18.4,N/A,,Overcast,310,2013-03-14 17:55:00
2:15 PM,21.6,10.6,63,29.73,10.0,WNW,12.7,18.4,N/A,,Overcast,300,2013-03-14 18:15:00
2:35 PM,21.0,9.0,60,29.73,10.0,NW,13.8,18.4,N/A,,Overcast,320,2013-03-14 18:35:00
2:55 PM,19.6,8.2,61,29.74,10.0,WNW,17.3,21.9,N/A,,Overcast,300,2013-03-14 18:55:00
3:15 PM,19.0,7.5,61,29.75,10.0,NW,12.7,20.7,N/A,,Overcast,310,2013-03-14 19:15:00
3:35 PM,18.5,6.8,60,29.76,10.0,WNW,10.4,18.4,N/A,,Overcast,300,2013-03-14 19:35:00
3:55 PM,18.1,5.0,57,29.76,10.0,WNW,10.4,17.3,N/A,,Overcast,290,2013-03-14 19:55:00
4:15 PM,17.8,4.6,57,29.78,10.0,WNW,15.0,23.0,N/A,,Overcast,290,2013-03-14 20:15:00
4:35 PM,17.2,3.9,56,29.78,10.0,West,12.7,19.6,N/A,,Overcast,280,2013-03-14 20:35:00
4:55 PM,17.2,3.2,54,29.79,10.0,WNW,15.0,21.9,N/A,,Overcast,290,2013-03-14 20:55:00
5:15 PM,16.9,2.3,53,29.80,10.0,West,13.8,20.7,N/A,,Overcast,270,2013-03-14 21:15:00
5:55 PM,16.2,3.0,56,29.80,10.0,WNW,4.6,-,N/A,,Overcast,290,2013-03-14 21:55:00
6:15 PM,15.8,3.2,58,29.81,10.0,WNW,11.5,20.7,N/A,,Overcast,290,2013-03-14 22:15:00
6:35 PM,15.8,4.6,61,29.81,7.0,West,5.8,-,N/A,,Overcast,280,2013-03-14 22:35:00
6:55 PM,15.3,6.1,67,29.82,3.0,West,5.8,-,N/A,Snow,Light Snow,270,2013-03-14 22:55:00
7:15 PM,15.4,3.6,59,29.83,10.0,West,9.2,-,N/A,,Overcast,280,2013-03-14 23:15:00
7:35 PM,15.3,3.6,60,29.83,10.0,West,3.5,-,N/A,,Overcast,280,2013-03-14 23:35:00
7:55 PM,15.3,2.7,58,29.83,10.0,West,5.8,-,N/A,,Overcast,280,2013-03-14 23:55:00
8:15 PM,15.1,3.0,59,29.83,10.0,West,5.8,-,N/A,,Overcast,280,2013-03-15 00:15:00
8:35 PM,15.4,4.6,62,29.83,10.0,WNW,3.5,-,N/A,,Overcast,290,2013-03-15 00:35:00
8:55 PM,15.3,5.9,67,29.83,10.0,WNW,9.2,-,N/A,,Overcast,300,2013-03-15 00:55:00
9:15 PM,15.3,7.0,70,29.83,7.0,WNW,4.6,-,N/A,,Overcast,300,2013-03-15 01:15:00
9:35 PM,15.1,7.7,73,29.83,4.0,NW,4.6,-,N/A,Snow,Light Snow,310,2013-03-15 01:35:00
9:55 PM,14.9,8.8,77,29.83,7.0,NW,4.6,-,N/A,Snow,Light Snow,310,2013-03-15 01:55:00
10:15 PM,14.9,8.8,77,29.83,7.0,WNW,3.5,-,N/A,Snow,Light Snow,300,2013-03-15 02:15:00
10:35 PM,14.9,9.0,77,29.83,5.0,WNW,5.8,-,N/A,Snow,Light Snow,290,2013-03-15 02:35:00
10:55 PM,14.9,8.4,76,29.83,7.0,NW,8.1,-,N/A,Snow,Light Snow,310,2013-03-15 02:55:00
11:15 PM,14.5,10.0,82,29.83,0.8,WNW,5.8,-,N/A,Snow,Snow,300,2013-03-15 03:15:00
11:55 PM,13.8,9.1,82,29.83,1.8,WNW,3.5,-,N/A,Snow,Light Snow,300,2013-03-15 03:55:00